リニア-ニート彗星

204P/LINEAR-NEAT (2022)

English version
Home page
Updated on October 14, 2023

---------------------------------------------------------------------

・ プロフィール

・ 写真集

・ 軌道要素

Epoch 2023 Feb. 25.0 TT = JDT 2460000.5
T 2022 Nov. 16.86307 TT                                 Rudenko
q   1.8343730            (2000.0)            P               Q
n   0.14540218     Peri.  356.65426     -0.26177189     -0.95896234
a   3.5816964      Node   108.49922     +0.88813456     -0.28352595
e   0.4878480      Incl.    6.59613     +0.37774658     +0.00206439
P   6.78
>From 841 observations 2015 Oct. 11-2023 Feb. 26, mean residual 0".5.
     Nongravitational parameters A1 = +0.42, A2 = -0.0359.

・ 星図

・ 光度変化

        m1 = 9.5 + 5 logΔ + 25 log r(t - 50)

---------------------------------------------------------------------

軌道要素はM.P.E.C. 2023-D72に掲載されたものです。
星図はステラナビゲータ Ver.10 (アストロアーツ) で作成したものです。
光度グラフはComet for Windowsで作成したものです。

---------------------------------------------------------------------

Copyright(C) Seiichi Yoshida (comet@aerith.net). All rights reserved.